Location: Pedholt
(56.0260°N, 10.2097°E)
Time: 22:35:49
(UTC+00:00)

A-11 Canister half - Pass Details

Date: 06 August 2021
Orbit: 1515 x 1685 km, 47.2° (Epoch: 19 September)

Event Time Altitude Azimuth Distance (km) Brightness Sun altitude
Rises 19:03:36 0° 271° (W) 4,840 12.9 0.7°
Reaches altitude 10° 19:06:50 10° 266° (W) 3,875 12.1 0.3°
Maximum altitude 19:16:06 46° 197° (SSW) 2,123 9.7 -0.8°
Drops below altitude 10° 19:25:33 10° 129° (SE) 3,946 10.5 -1.9°
Enters shadow 19:28:00 - 124° (SE) 4,668 10.8 -2.2°
Sets 19:28:53 0° 123° (ESE) 4,935 - -2.3°
